20.04.2024;03:00;2
20.04.2024;02:00;3
20.04.2024;01:00;3
19.04.2024;24:00;2
19.04.2024;23:00;2
19.04.2024;22:00;2
19.04.2024;21:00;2
19.04.2024;20:00;2
19.04.2024;19:00;2
19.04.2024;18:00;2
19.04.2024;17:00;2
19.04.2024;16:00;2
19.04.2024;15:00;2
19.04.2024;14:00;2
19.04.2024;13:00;3
19.04.2024;12:00;7
19.04.2024;11:00;8
19.04.2024;10:00;9
19.04.2024;09:00;9
19.04.2024;08:00;9
19.04.2024;07:00;10
19.04.2024;06:00;8
19.04.2024;05:00;7
19.04.2024;04:00;7
19.04.2024;03:00;3
19.04.2024;02:00;7
19.04.2024;01:00;9
18.04.2024;24:00;9
18.04.2024;23:00;11
18.04.2024;22:00;9
18.04.2024;21:00;6
18.04.2024;20:00;3
18.04.2024;19:00;5
18.04.2024;18:00;5
18.04.2024;17:00;5
18.04.2024;16:00;5
18.04.2024;15:00;6
18.04.2024;14:00;5
18.04.2024;13:00;2
18.04.2024;12:00;2
18.04.2024;11:00;2
18.04.2024;10:00;2
18.04.2024;09:00;2
18.04.2024;08:00;2
18.04.2024;07:00;2
18.04.2024;06:00;2
18.04.2024;05:00;2
18.04.2024;04:00;3
18.04.2024;03:00;7
18.04.2024;02:00;6
18.04.2024;01:00;5
17.04.2024;24:00;3
17.04.2024;23:00;3
17.04.2024;22:00;6
17.04.2024;21:00;7
17.04.2024;20:00;5
17.04.2024;19:00;5
17.04.2024;18:00;8
17.04.2024;17:00;7
17.04.2024;16:00;8
17.04.2024;15:00;6
17.04.2024;14:00;2
17.04.2024;13:00;4
17.04.2024;12:00;3
17.04.2024;11:00;2
17.04.2024;10:00;3
17.04.2024;09:00;6
17.04.2024;08:00;7
17.04.2024;07:00;3
17.04.2024;06:00;3
17.04.2024;05:00;4
17.04.2024;04:00;2
17.04.2024;03:00;2
17.04.2024;02:00;6
17.04.2024;01:00;8
16.04.2024;24:00;7
16.04.2024;23:00;5
16.04.2024;22:00;2
16.04.2024;21:00;2
16.04.2024;20:00;2
16.04.2024;19:00;3
16.04.2024;18:00;5
16.04.2024;17:00;2
16.04.2024;16:00;2
16.04.2024;15:00;3
16.04.2024;14:00;6
16.04.2024;13:00;5
16.04.2024;12:00;6
16.04.2024;11:00;9
16.04.2024;10:00;8
16.04.2024;09:00;5
16.04.2024;08:00;5
16.04.2024;07:00;7
16.04.2024;06:00;5
16.04.2024;05:00;2
16.04.2024;04:00;2
16.04.2024;03:00;3
16.04.2024;02:00;2
16.04.2024;01:00;2
15.04.2024;24:00;2
15.04.2024;23:00;3
15.04.2024;22:00;10
15.04.2024;21:00;12
15.04.2024;20:00;15
15.04.2024;19:00;14
15.04.2024;18:00;11
15.04.2024;17:00;14
15.04.2024;16:00;15
15.04.2024;15:00;10
15.04.2024;14:00;12
15.04.2024;13:00;12
15.04.2024;12:00;13
15.04.2024;11:00;10
15.04.2024;10:00;14
15.04.2024;09:00;11
15.04.2024;08:00;9
15.04.2024;07:00;13
15.04.2024;06:00;13
15.04.2024;05:00;9
15.04.2024;04:00;9
15.04.2024;03:00;13
15.04.2024;02:00;12
15.04.2024;01:00;11
